sat.trackr.live / text

‹ back to catalog

STARLINK-34306

NORAD 64259 · 2025-120D

PAYLOAD ACTIVE UNKNOWN

§ Identity

Operator
Country
US
Launch date
2025-06-04
Launch site
AFWTR
Launch vehicle
Mass (kg)
RCS (m²)

Purposes: comms

External: N2YO · Heavens-Above · Gunter

§ Orbital elements

Epoch: 2026-09-20T13:05:37.176288Z

Period
93.85 min
Inclination
53.1584°
Eccentricity
0.0001062
Mean motion
15.34397819 rev/d
Perigee alt
462.0 km
Apogee alt
463.4 km
Semi-major
6,840.8 km
B*
4.6475e-4
RAAN
285.6307°
Arg perigee
82.1284°
Mean anomaly
277.9839°
Rev number
7,378

§ Raw data

STARLINK-343061 64259U 25120D   26263.54556917  .00015357  00000+0  46475-3 0  99962 64259  53.1584 285.6307 0001062  82.1284 277.9839 15.34397819 73789

JSON: /api/v1/satellites/64259 · /tle

For live sub-satellite position, see the globe view (requires WebGL).

§ Visibility from observer

Set your observer location to see the next 7 days of passes ≥ 10°. The values pass through the URL so the page stays shareable.

No JS? Fill the form by hand. The geolocation button needs JavaScript.